Location: Alphen aan den Rijn
(52.1277°N, 4.6689°E)
Time: 21:40:20
(UTC+02:00)

Envisat - Visible Passes

Search period start: 19 October 2021 00:00
Search period end: 29 October 2021 00:00
Orbit: 764 x 766 km, 98.2° (Epoch: 19 October)

Date Brightness Start Highest point End Pass type
(mag) Time Alt. Az. Time Alt. Az. Time Alt. Az.
19 Oct 5.0 06:04:43 10° NNE 06:09:10 29° E 06:13:35 10° SSE visible
19 Oct 6.0 19:05:16 10° SW 19:09:07 21° W 19:12:59 10° NW visible
20 Oct 6.0 05:28:53 10° NE 05:31:53 15° E 05:34:50 10° ESE visible
20 Oct 3.0 07:06:31 10° NNE 07:11:39 90° ESE 07:16:44 10° SSW visible
21 Oct 4.1 06:29:46 10° NNE 06:34:41 47° E 06:39:34 10° S visible
21 Oct 6.3 19:32:22 10° WSW 19:34:48 13° W 19:37:14 10° NW visible
22 Oct 5.3 05:53:24 10° NE 05:57:32 24° E 06:01:39 10° SE visible
22 Oct 3.1 07:31:55 10° N 07:36:55 58° WNW 07:41:54 10° SSW visible
23 Oct 6.1 05:18:04 10° ENE 05:20:10 12° E 05:22:17 10° ESE visible
23 Oct 3.2 06:54:59 10° NNE 07:00:06 75° ESE 07:05:11 10° S visible
24 Oct 4.5 06:18:20 10° NNE 06:23:06 38° E 06:27:48 10° SSE visible
24 Oct 6.1 19:19:55 10° SW 19:23:06 16° W 19:26:17 10° NW visible
25 Oct 5.6 05:42:09 10° NE 05:45:52 20° E 05:49:34 10° SE visible
25 Oct 3.0 07:20:20 10° N 07:25:26 71° WNW 07:30:29 10° SSW visible
26 Oct 3.6 06:43:29 10° NNE 06:48:33 61° ESE 06:53:34 10° S visible
27 Oct 4.9 06:06:56 10° NNE 06:11:28 31° E 06:15:58 10° SSE visible
27 Oct 3.3 07:45:49 10° N 07:50:39 45° WNW 07:55:29 10° SW visible
27 Oct 5.9 19:07:42 10° SW 19:11:25 20° W 19:15:09 10° NW visible
28 Oct 5.8 05:31:01 10° NE 05:34:11 16° E 05:37:22 10° SE visible
28 Oct 3.0 07:08:47 10° NNE 07:13:54 86° WNW 07:19:00 10° SSW visible
